Hourly Weather Mazari Sharif

Today, 6 July, Monday

Time Temperature Precipitation Wind Pressure Humidity
00:00 +21°C° 0 mm 2 mps 650 mmHg 20%
01:00 +21°C° 0 mm 2 mps 649 mmHg 21%
02:00 +20°C° 0 mm 2 mps 649 mmHg 22%
03:00 +20°C° 0 mm 1 mps 649 mmHg 23%
04:00 +19°C° 0 mm 1 mps 649 mmHg 24%
05:00 +22°C° 0 mm 1 mps 650 mmHg 22%
06:00 +24°C° 0 mm 1 mps 651 mmHg 19%
07:00 +26°C° 0 mm 1 mps 652 mmHg 16%
08:00 +27°C° 0 mm 2 mps 652 mmHg 16%
09:00 +28°C° 0 mm 2 mps 652 mmHg 15%
10:00 +29°C° 0 mm 3 mps 652 mmHg 14%
11:00 +30°C° 0 mm 3 mps 652 mmHg 13%
12:00 +31°C° 0 mm 3 mps 652 mmHg 13%
13:00 +33°C° 0 mm 4 mps 652 mmHg 12%
14:00 +33°C° 0 mm 4 mps 652 mmHg 12%
15:00 +33°C° 0 mm 4 mps 651 mmHg 12%
16:00 +33°C° 0 mm 4 mps 651 mmHg 13%
17:00 +30°C° 0 mm 3 mps 651 mmHg 15%
18:00 +28°C° 0 mm 3 mps 650 mmHg 17%
19:00 +26°C° 0 mm 2 mps 650 mmHg 18%
20:00 +25°C° 0 mm 1 mps 650 mmHg 20%
21:00 +24°C° 0 mm 1 mps 650 mmHg 21%
22:00 +23°C° 0 mm 1 mps 650 mmHg 22%
23:00 +22°C° 0 mm 1 mps 650 mmHg 23%

Tomorrow, 7 July, Tuesday

Time Temperature Precipitation Wind Pressure Humidity
00:00 +22°C° 0 mm 1 mps 649 mmHg 24%
01:00 +21°C° 0 mm 1 mps 649 mmHg 24%
02:00 +19°C° 0 mm 0 mps 649 mmHg 25%
03:00 +18°C° 0 mm 0 mps 649 mmHg 25%
04:00 +18°C° 0 mm 0 mps 649 mmHg 26%
05:00 +20°C° 0 mm 0 mps 650 mmHg 23%
06:00 +24°C° 0 mm 1 mps 651 mmHg 19%
07:00 +27°C° 0 mm 1 mps 652 mmHg 16%
08:00 +28°C° 0 mm 1 mps 652 mmHg 15%
09:00 +30°C° 0 mm 2 mps 652 mmHg 13%
10:00 +31°C° 0 mm 2 mps 653 mmHg 12%
11:00 +33°C° 0 mm 3 mps 652 mmHg 12%
12:00 +34°C° 0 mm 4 mps 652 mmHg 11%
13:00 +34°C° 0 mm 4 mps 652 mmHg 11%
14:00 +34°C° 0 mm 4 mps 652 mmHg 11%
15:00 +34°C° 0 mm 4 mps 652 mmHg 11%
16:00 +34°C° 0 mm 4 mps 652 mmHg 11%
17:00 +31°C° 0 mm 3 mps 652 mmHg 13%
18:00 +29°C° 0 mm 2 mps 651 mmHg 15%
19:00 +28°C° 0 mm 2 mps 651 mmHg 16%
20:00 +27°C° 0 mm 1 mps 651 mmHg 17%
21:00 +27°C° 0 mm 1 mps 651 mmHg 17%
22:00 +27°C° 0 mm 1 mps 651 mmHg 18%
23:00 +25°C° 0 mm 1 mps 651 mmHg 19%

Day after tomorrow, 8 July, Wednesday

Time Temperature Precipitation Wind Pressure Humidity
00:00 +24°C° 0 mm 1 mps 650 mmHg 20%
01:00 +21°C° 0 mm 0 mps 650 mmHg 22%
02:00 +20°C° 0 mm 0 mps 650 mmHg 22%
03:00 +20°C° 0 mm 0 mps 650 mmHg 22%
04:00 +20°C° 0 mm 0 mps 650 mmHg 23%
05:00 +24°C° 0 mm 1 mps 651 mmHg 20%
06:00 +26°C° 0 mm 1 mps 652 mmHg 17%
07:00 +29°C° 0 mm 1 mps 653 mmHg 14%
08:00 +30°C° 0 mm 2 mps 653 mmHg 13%
09:00 +31°C° 0 mm 2 mps 653 mmHg 12%
10:00 +32°C° 0 mm 2 mps 653 mmHg 11%
11:00 +34°C° 0 mm 3 mps 653 mmHg 11%
12:00 +35°C° 0 mm 4 mps 653 mmHg 11%
13:00 +36°C° 0 mm 5 mps 653 mmHg 10%
14:00 +36°C° 0 mm 5 mps 653 mmHg 10%
15:00 +36°C° 0 mm 5 mps 653 mmHg 10%
16:00 +36°C° 0 mm 4 mps 653 mmHg 10%
17:00 +34°C° 0 mm 4 mps 652 mmHg 12%
18:00 +31°C° 0 mm 3 mps 652 mmHg 14%
19:00 +29°C° 0 mm 3 mps 652 mmHg 15%
20:00 +28°C° 0 mm 2 mps 652 mmHg 16%
21:00 +27°C° 0 mm 2 mps 651 mmHg 18%
22:00 +26°C° 0 mm 1 mps 651 mmHg 19%
23:00 +26°C° 0 mm 2 mps 651 mmHg 19%

9 July, Thursday

Time Temperature Precipitation Wind Pressure Humidity
00:00 +25°C° 0 mm 2 mps 651 mmHg 19%
01:00 +25°C° 0 mm 2 mps 651 mmHg 19%
02:00 +25°C° 0 mm 2 mps 651 mmHg 20%
03:00 +24°C° 0 mm 2 mps 651 mmHg 20%
04:00 +24°C° 0 mm 2 mps 651 mmHg 20%
05:00 +26°C° 0 mm 3 mps 652 mmHg 19%
06:00 +28°C° 0 mm 3 mps 652 mmHg 17%
07:00 +29°C° 0 mm 3 mps 653 mmHg 15%
08:00 +31°C° 0 mm 3 mps 653 mmHg 14%
09:00 +33°C° 0 mm 4 mps 654 mmHg 13%
10:00 +34°C° 0 mm 4 mps 654 mmHg 12%
11:00 +35°C° 0 mm 5 mps 654 mmHg 12%
12:00 +36°C° 0 mm 5 mps 653 mmHg 11%
13:00 +36°C° 0 mm 6 mps 653 mmHg 11%
14:00 +36°C° 0 mm 6 mps 653 mmHg 11%
15:00 +36°C° 0 mm 5 mps 652 mmHg 11%
16:00 +36°C° 0 mm 5 mps 652 mmHg 11%
17:00 +34°C° 0 mm 5 mps 652 mmHg 12%
18:00 +32°C° 0 mm 4 mps 651 mmHg 13%
19:00 +29°C° 0 mm 3 mps 651 mmHg 14%
20:00 +28°C° 0 mm 3 mps 651 mmHg 15%
21:00 +27°C° 0 mm 2 mps 651 mmHg 16%
22:00 +26°C° 0 mm 2 mps 651 mmHg 17%
23:00 +26°C° 0 mm 2 mps 650 mmHg 18%

10 July, Friday

Time Temperature Precipitation Wind Pressure Humidity
00:00 +25°C° 0 mm 2 mps 650 mmHg 18%
01:00 +25°C° 0 mm 2 mps 649 mmHg 19%
02:00 +25°C° 0 mm 2 mps 650 mmHg 20%
03:00 +24°C° 0 mm 2 mps 650 mmHg 21%
04:00 +24°C° 0 mm 2 mps 650 mmHg 21%
05:00 +26°C° 0 mm 3 mps 650 mmHg 19%
06:00 +28°C° 0 mm 3 mps 651 mmHg 17%
07:00 +30°C° 0 mm 3 mps 652 mmHg 15%
08:00 +31°C° 0 mm 3 mps 652 mmHg 14%
09:00 +33°C° 0 mm 4 mps 653 mmHg 13%
10:00 +35°C° 0 mm 5 mps 653 mmHg 12%
11:00 +35°C° 0 mm 6 mps 653 mmHg 12%
12:00 +36°C° 0 mm 6 mps 652 mmHg 11%
13:00 +38°C° 0 mm 7 mps 652 mmHg 11%
14:00 +37°C° 0 mm 8 mps 652 mmHg 11%
15:00 +37°C° 0 mm 8 mps 652 mmHg 11%
16:00 +37°C° 0 mm 9 mps 652 mmHg 11%
17:00 +34°C° 0 mm 8 mps 651 mmHg 13%
18:00 +33°C° 0 mm 6 mps 651 mmHg 15%
19:00 +30°C° 0 mm 5 mps 651 mmHg 17%
20:00 +29°C° 0 mm 5 mps 651 mmHg 18%
21:00 +27°C° 0 mm 4 mps 650 mmHg 19%
22:00 +26°C° 0 mm 4 mps 650 mmHg 20%
23:00 +26°C° 0 mm 4 mps 650 mmHg 22%

11 July, Saturday

Time Temperature Precipitation Wind Pressure Humidity
00:00 +25°C° 0 mm 5 mps 650 mmHg 23%
01:00 +25°C° 0 mm 5 mps 650 mmHg 25%
02:00 +23°C° 0 mm 4 mps 650 mmHg 28%
03:00 +22°C° 0 mm 4 mps 650 mmHg 30%
04:00 +22°C° 0 mm 3 mps 650 mmHg 33%
05:00 +23°C° 0 mm 4 mps 650 mmHg 30%
06:00 +26°C° 0 mm 4 mps 651 mmHg 28%
07:00 +27°C° 0 mm 5 mps 652 mmHg 25%
08:00 +28°C° 0 mm 6 mps 652 mmHg 23%
09:00 +29°C° 0 mm 7 mps 652 mmHg 21%
10:00 +31°C° 0 mm 9 mps 652 mmHg 19%
11:00 +32°C° 0 mm 9 mps 652 mmHg 17%
12:00 +32°C° 0 mm 8 mps 652 mmHg 15%
13:00 +33°C° 0 mm 8 mps 652 mmHg 14%
14:00 +33°C° 0 mm 8 mps 651 mmHg 14%
15:00 +33°C° 0 mm 8 mps 651 mmHg 13%
16:00 +33°C° 0 mm 8 mps 651 mmHg 13%
17:00 +30°C° 0 mm 7 mps 651 mmHg 16%
18:00 +28°C° 0 mm 5 mps 651 mmHg 19%
19:00 +27°C° 0 mm 4 mps 650 mmHg 22%
20:00 +26°C° 0 mm 4 mps 650 mmHg 24%
21:00 +25°C° 0 mm 3 mps 650 mmHg 26%
22:00 +24°C° 0 mm 3 mps 650 mmHg 28%
23:00 +24°C° 0 mm 3 mps 650 mmHg 29%
Show more